Weather History for Flora, IL

Change the Weather History Date:

Thursday, December 13, 2012

  Actual Average (KEVV) Record (KEVV)
Temperature  
Mean Temperature 36 °F 36 °F  
Max Temperature 50 °F 44 °F 70 °F (1918)
Min Temperature 21 °F 27 °F -6 °F (1962)
Degree Days  
Heating Degree Days 30 29  
Month to date heating degree days 355  
Since 1 July heating degree days 1216  
Cooling Degree Days 0 0  
Month to date cooling degree days 0  
Year to date cooling degree days 1397  
Moisture  
Dew Point 25 °F    
Average Humidity 77    
Maximum Humidity 99    
Minimum Humidity 35    
Precipitation  
Precipitation 0.00 in 0.12 in 2.70 in (1927)
Month to date precipitation 1.70  
Year to date precipitation 43.25  
Snow  
Snow 0.00 in 0.10 in 2.80 in (2003)
Month to date snowfall 0.9  
Since 1 July snowfall 1.2  
Snow Depth -    
Sea Level Pressure  
Sea Level Pressure 30.31 in    
Wind  
Wind Speed 4 mph (SSE)    
Max Wind Speed 15 mph    
Max Gust Speed -    
Visibility 9 miles    
Events      
T = Trace of Precipitation, MM = Missing Value Source: NWS Daily Summary

Daily Weather History Graph

Daily Weather History Graph

Search for Another Location

Airport:

Trip Planner

Search our weather history database for the weather conditions in past years. The results will help you decide how hot, cold, wet, or windy it might be!

Date:

Astronomy

Dec. 13, 2012 Rise Set
Actual Time 7:03 AM CST 4:33 PM CST
Civil Twilight 6:33 AM CST 5:02 PM CST
Nautical Twilight 6:00 AM CST 5:36 PM CST
Astronomical Twilight 5:28 AM CST 6:08 PM CST
Moon 7:11 AM CST (12/13) 5:14 PM CST (12/13)
Length of Visible Light 10h 29m
Length of Day
9h 29m
New Moon, 0% of the Moon is Illuminated
Dec 13
New Moon
Dec 19
First Quarter
Dec 28
Full
Jan 4
Last Quarter
Jan 11
New

Hourly Weather History & Observations

Time (CST) Temp. Windchill Dew Point Humidity Pressure Visibility Wind Dir Wind Speed Gust Speed Precip Events Conditions
12:15 AM 27.5 °F - 25.2 °F 91% 30.35 in 10.0 mi Calm Calm - N/A   Clear
12:35 AM 24.4 °F 20.1 °F 22.1 °F 91% 30.34 in 10.0 mi SSE 3.5 mph - N/A   Clear
12:55 AM 24.3 °F 18.4 °F 23.2 °F 96% 30.34 in 10.0 mi SSE 4.6 mph - N/A   Clear
1:15 AM 28.8 °F - 25.7 °F 88% 30.35 in 10.0 mi Calm Calm - N/A   Clear
1:35 AM 29.7 °F - 25.5 °F 85% 30.37 in 10.0 mi Calm Calm - N/A   Clear
1:55 AM 26.8 °F - 25.3 °F 94% 30.37 in 7.0 mi Calm Calm - N/A   Clear
2:15 AM 26.1 °F - 23.9 °F 92% 30.37 in 10.0 mi Calm Calm - N/A   Clear
2:35 AM 23.2 °F - 21.6 °F 94% 30.37 in 7.0 mi Calm Calm - N/A   Clear
2:55 AM 21.9 °F - 20.8 °F 96% 30.38 in 7.0 mi Calm Calm - N/A   Clear
3:15 AM 24.1 °F - 23.7 °F 99% 30.38 in 7.0 mi Calm Calm - N/A   Clear
3:35 AM 23.5 °F - 22.3 °F 95% 30.37 in 7.0 mi Calm Calm - N/A   Clear
3:55 AM 22.3 °F - 21.7 °F 98% 30.37 in 7.0 mi Calm Calm - N/A   Clear
4:15 AM 23.0 °F - 22.6 °F 99% 30.37 in 5.0 mi Calm Calm - N/A   Clear
4:35 AM 22.5 °F 16.3 °F 21.9 °F 98% 30.37 in 7.0 mi SSE 4.6 mph - N/A   Clear
4:55 AM 23.0 °F - 22.3 °F 97% 30.37 in 7.0 mi Calm Calm - N/A   Clear
5:15 AM 25.5 °F 18.7 °F 23.9 °F 94% 30.38 in 10.0 mi SSE 5.8 mph - N/A   Clear
5:35 AM 23.0 °F 18.4 °F 21.7 °F 95% 30.37 in 7.0 mi SE 3.5 mph - N/A   Clear
5:55 AM 23.0 °F 17.0 °F 22.1 °F 96% 30.37 in 7.0 mi SE 4.6 mph - N/A   Clear
6:15 AM 22.5 °F 15.1 °F 21.4 °F 96% 30.37 in 10.0 mi SE 5.8 mph - N/A   Clear
6:35 AM 24.1 °F 16.0 °F 22.8 °F 95% 30.37 in 10.0 mi SE 6.9 mph - N/A   Clear
6:55 AM 23.5 °F 17.6 °F 22.3 °F 95% 30.38 in 7.0 mi SSE 4.6 mph - N/A   Clear
7:15 AM 26.1 °F 20.5 °F 23.7 °F 91% 30.38 in 10.0 mi South 4.6 mph - N/A   Clear
7:35 AM 25.7 °F 21.5 °F 23.7 °F 92% 30.38 in 10.0 mi South 3.5 mph - N/A   Clear
7:55 AM 28.2 °F 24.4 °F 25.7 °F 90% 30.38 in 10.0 mi South 3.5 mph - N/A   Clear
8:15 AM 30.7 °F 24.9 °F 27.7 °F 88% 30.38 in 10.0 mi SSE 5.8 mph - N/A   Clear
8:53 AM 33.8 °F 27.0 °F 28.4 °F 81% 30.38 in 10.0 mi SSE 8.1 mph - N/A   Clear
9:13 AM 35.6 °F 28.6 °F 28.4 °F 75% 30.38 in 10.0 mi South 9.2 mph - N/A   Clear
9:15 AM 36.0 °F 28.5 °F 29.5 °F 77% 30.38 in 10.0 mi South 10.4 mph - N/A   Clear
10:53 AM 42.8 °F 36.6 °F 28.4 °F 57% 30.36 in 10.0 mi South 11.5 mph - N/A   Clear
11:13 AM 44.6 °F 38.4 °F 28.4 °F 53% 30.35 in 10.0 mi South 12.7 mph - N/A   Clear
11:33 AM 46.4 °F 40.4 °F 26.6 °F 46% 30.34 in 10.0 mi South 13.8 mph - N/A   Clear
11:35 AM 45.9 °F 40.0 °F 27.5 °F 49% 30.34 in 10.0 mi South 12.7 mph - N/A   Clear
12:13 PM 48.2 °F - 26.6 °F 43% 30.33 in 10.0 mi South 12.7 mph - N/A   Clear
1:33 PM 48.2 °F - 28.4 °F 46% 30.28 in 10.0 mi South 8.1 mph - N/A   Clear
1:53 PM 50.0 °F - 23.0 °F 35% 30.28 in 10.0 mi South 13.8 mph - N/A   Clear
2:13 PM 50.0 °F - 23.0 °F 35% 30.27 in 10.0 mi South 15.0 mph - N/A   Clear
2:15 PM 50.0 °F - 23.7 °F 36% 30.27 in 10.0 mi South 12.7 mph - N/A   Clear
3:53 PM 48.2 °F - 26.6 °F 43% 30.26 in 10.0 mi South 10.4 mph - N/A   Clear
4:13 PM 44.6 °F 40.2 °F 26.6 °F 49% 30.25 in 10.0 mi South 8.1 mph - N/A   Clear
4:33 PM 42.8 °F 38.6 °F 26.6 °F 53% 30.25 in 10.0 mi South 6.9 mph - N/A   Clear
4:35 PM 41.9 °F 37.5 °F 27.1 °F 56% 30.25 in 10.0 mi South 6.9 mph - N/A   Clear
5:35 PM 37.0 °F 31.0 °F 28.4 °F 71% 30.25 in 10.0 mi SSE 8.1 mph - N/A   Clear
5:55 PM 37.4 °F 32.8 °F 28.4 °F 70% 30.25 in 10.0 mi South 5.8 mph - N/A   Clear
6:15 PM 36.1 °F 30.6 °F 27.7 °F 71% 30.25 in 10.0 mi South 6.9 mph - N/A   Clear
6:55 PM 34.2 °F 28.2 °F 27.3 °F 76% 30.25 in 10.0 mi South 6.9 mph - N/A   Clear
7:15 PM 33.6 °F 27.5 °F 27.3 °F 78% 30.25 in 10.0 mi SSE 6.9 mph - N/A   Clear
7:35 PM 32.0 °F 25.6 °F 26.6 °F 80% 30.25 in 10.0 mi South 6.9 mph - N/A   Clear
7:55 PM 32.7 °F 26.4 °F 26.6 °F 78% 30.24 in 10.0 mi South 6.9 mph - N/A   Clear
8:15 PM 31.6 °F 26.0 °F 26.1 °F 80% 30.24 in 10.0 mi SSE 5.8 mph - N/A   Clear
8:35 PM 32.4 °F 27.9 °F 25.9 °F 77% 30.24 in 10.0 mi South 4.6 mph - N/A   Clear
8:55 PM 33.8 °F 28.6 °F 25.5 °F 72% 30.24 in 10.0 mi South 5.8 mph - N/A   Clear
9:15 PM 32.4 °F 26.9 °F 25.3 °F 75% 30.24 in 10.0 mi South 5.8 mph - N/A   Clear
9:35 PM 32.7 °F 27.3 °F 25.0 °F 73% 30.24 in 10.0 mi South 5.8 mph - N/A   Clear
9:55 PM 31.8 °F 27.3 °F 25.0 °F 76% 30.24 in 10.0 mi South 4.6 mph - N/A   Clear
10:15 PM 32.4 °F 26.0 °F 25.3 °F 75% 30.24 in 10.0 mi South 6.9 mph - N/A   Clear
10:35 PM 32.7 °F 26.4 °F 25.0 °F 73% 30.23 in 10.0 mi South 6.9 mph - N/A   Clear
10:55 PM 32.0 °F 26.4 °F 25.3 °F 76% 30.23 in 10.0 mi South 5.8 mph - N/A   Clear
11:15 PM 32.0 °F 26.4 °F 25.3 °F 76% 30.24 in 10.0 mi South 5.8 mph - N/A   Clear
11:35 PM 30.6 °F 25.8 °F 24.4 °F 78% 30.24 in 10.0 mi South 4.6 mph - N/A   Clear
11:55 PM 29.5 °F 23.4 °F 23.9 °F 80% 30.24 in 10.0 mi South 5.8 mph - N/A   Clear